Location: Hradec Kralove
(50.2170°N, 15.8330°E)
Time: 11:09:54
(UTC+01:00)

SR - Visible Passes

Search period start: 31 January 2023 00:00
Search period end: 10 February 2023 00:00
Orbit: 581 x 870 km, 66.7° (Epoch: 30 January)

Date Brightness Start Highest point End Pass type
(mag) Time Alt. Az. Time Alt. Az. Time Alt. Az.
31 Jan ? 18:14:15 10° NW 18:16:51 14° NNW 18:19:21 10° N visible
01 Feb ? 17:22:18 10° WNW 17:25:51 20° NNW 17:29:13 10° NNE visible
02 Feb ? 18:16:51 10° NW 18:18:27 12° NNW 18:20:02 10° N visible
03 Feb ? 17:24:38 10° WNW 17:27:20 15° NNW 17:29:58 10° NNE visible
04 Feb ? 18:19:57 10° N 18:20:07 10° N 18:20:18 10° N visible
04 Feb ? 20:02:04 10° N 20:02:13 10° N 20:02:13 10° N visible
05 Feb ? 19:12:07 10° N 19:13:02 11° N 19:13:06 11° NNE visible
06 Feb ? 20:02:50 10° NNW 20:03:22 12° N 20:03:22 12° N visible
07 Feb ? 17:30:10 10° NNW 17:30:35 10° N 17:30:58 10° N visible
07 Feb ? 19:12:44 10° N 19:14:17 12° NNE 19:14:17 12° NNE visible
08 Feb ? 18:22:55 10° N 18:23:28 10° N 18:24:01 10° NNE visible
08 Feb ? 20:03:37 10° NNW 20:04:35 14° N 20:04:35 14° N visible
09 Feb ? 19:13:27 10° NNW 19:15:32 15° NNE 19:15:32 15° NNE visible
09 Feb ? 20:54:46 10° NNW 20:54:53 11° NNW 20:54:53 11° NNW visible
